Hourly Data Report for May 23, 2022

WINNIPEG THE FORKS
MANITOBA
Current Station Operator: ECCC - MSC

49°53'18.008" N
97°07'46.007" W
230.00 m
5023262
71579
XWN

Download Data

Hourly Data (May 2022)
Hourly Data Report for May 23, 2022
TIME
LST
Temp Definition
°C
Dew Point Definition
°C
Rel Hum Definition
%
Precip. Amount Definition
mm

Wind Dir Definition
10's deg

Wind Spd Definition
km/h
Visibility Definition
km
Stn Press Definition
kPa
Hmdx Definition


Wind Chill Definition


Weather Definition


00:00 10.1 0.5 51 0.0 21 2   99.44     LegendNANA
01:00 9.3 1.6 59 0.0 21 3   99.42     LegendNANA
02:00 8.3 2.0 65 0.0 21 3   99.39     LegendNANA
03:00 7.9 3.3 73 0.0 21 6   99.37     LegendNANA
04:00 7.5 2.5 70 0.0 20 7   99.37     LegendNANA
05:00 6.9 2.3 72 0.0 20 6   99.36     LegendNANA
06:00 8.6 1.3 60 0.0 21 8   99.36     LegendNANA
07:00 10.7 0.6 50 0.0 24 6   99.39     LegendNANA
08:00 12.5 -0.1 42 0.0 21 8   99.39     LegendNANA
09:00 12.9 2.0 48 0.0 20 6   99.39     LegendNANA
10:00 16.5 0.3 33 0.0 21 8   99.31     LegendNANA
11:00 17.5 -2.5 25 0.0 23 12   99.26     LegendNANA
12:00 16.8 -3.6 25 0.0 22 16   99.23     LegendNANA
13:00 17.4 -3.0 25 0.0 21 17   99.16     LegendNANA
14:00 17.6 -2.6 25 0.0 20 12   99.11     LegendNANA
15:00 17.6 -2.2 26 0.0 21 10   99.06     LegendNANA
16:00 18.0 -1.8 26 0.0 22 12   99.01     LegendNANA
17:00 17.3 -0.4 30 0.0 21 18   99.00     LegendNANA
18:00 17.3 1.9 36 0.0 21 17   98.98     LegendNANA
19:00 16.2 2.4 40 0.0 21 11   98.98     LegendNANA
20:00 14.9 3.7 47 0.0 20 8   98.96     LegendNANA
21:00 13.8 3.8 51 0.0 20 6   99.00     LegendNANA
22:00 12.5 4.1 57 0.0 20 2   98.98     LegendNANA
23:00 11.9 3.9 58 0.0 21 4   98.95     LegendNANA

Notes on Data Quality.

Legend

  • E = Estimated
  • M = Missing
  • NA = Not Available*
  • [empty] = Indicates an unobserved value
Date modified: